Regional Weather Roundup
Issued by NWS

Home | Current Version | Previous Version | Text Only | Print | Product List | Glossary On
Versions: 1 2 3 4 5 6 7 8 9 10 11 12 13 14 15 16 17 18 19 20 21 22 23 24 25 26 27 28 29 30 31 32 33 34 35 36 37 38 39 40 41 42 43 44 45 46 47 48 49 50
000
ASUS43 KLMK 032302
RWRKY
KENTUCKY REGIONAL WEATHER ROUNDUP
NATIONAL WEATHER SERVICE LOUISVILLE KY
600 PM EST SAT DEC 03 2016

NOTE "FAIR" INDICATES FEW OR NO CLOUDS BELOW 12,000 FEET
WITH NO SIGNIFICANT WEATHER AND/OR OBSTRUCTIONS TO VISIBILITY.

KYZ001>023-026-027-061>063-070>075-040000-
WESTERN AND SOUTH CENTRAL KENTUCKY

CITY           SKY/WX    TMP DP  RH WIND       PRES   REMARKS
PADUCAH        CLOUDY    43  30  60 E6        30.27R
HENDERSON      CLOUDY    43  28  56 CALM      30.29S
OWENSBORO      CLOUDY    42  31  64 E3        30.29F
HOPKINSVILLE   CLOUDY    41  32  69 NE6       30.26F
BOWLING GREEN  CLOUDY    42  32  67 E5        30.29F
GLASGOW        CLOUDY    40  33  75 CALM      30.28S
$$

KYZ024-025-028>034-038-045-046-053-040000-
NORTH CENTRAL KENTUCKY

CITY           SKY/WX    TMP DP  RH WIND       PRES   REMARKS
LOUISVILLE/SDF CLOUDY    43  26  51 NE5       30.29F
LOUISVILLE/LOU CLOUDY    42  28  57 NE5       30.30F
FORT KNOX      CLOUDY    40  29  64 N3        30.26F
$$

KYZ035>037-039>044-047>052-055>060-089>105-040000-
NORTHEAST KENTUCKY

CITY           SKY/WX    TMP DP  RH WIND       PRES   REMARKS
LEXINGTON      CLOUDY    39  28  64 NE5       30.29F
COVINGTON      CLOUDY    39  29  67 NW3       30.30S
FRANKFORT      CLOUDY    41  28  60 NE3       30.28F
$$

KYZ054-064>069-076>088-106>120-040000-
SOUTHEAST KENTUCKY

CITY           SKY/WX    TMP DP  RH WIND       PRES   REMARKS
JACKSON        CLOUDY    38  28  67 CALM      30.28F
LONDON         MOCLDY    40  28  62 NE5       30.27F
SOMERSET       CLOUDY    37  30  75 CALM      30.29F
MIDDLESBORO    MOCLDY    41  31  68 CALM      30.27F
MONTICELLO     CLOUDY    39  31  72 W7        30.28F WCI  34
$$




USA.gov is the U.S. government's official web portal to all federal, state and local government web resources and services.